| time (UTC) | temp C | wind direction | speed KPH | gust KPH | rain 1hr cm | rain 24hr cm | rain mn cm | humidity % | barometer mb |
| 20260510145540 | 22 | 110 | 8.0 | 17.7 | 0.00 | 0.86 | 0.00 | 51 | 1005.7 |
| 20260510144537 | 22 | 131 | 9.7 | 24.1 | 0.00 | 0.89 | 0.00 | 51 | 1005.5 |
| 20260510143535 | 21 | 139 | 6.4 | 17.7 | 0.00 | 0.97 | 0.00 | 52 | 1005.7 |
| 20260510142532 | 21 | 47 | 11.3 | 27.4 | 0.00 | 1.02 | 0.00 | 54 | 1005.9 |
| 20260510141530 | 21 | 146 | 8.0 | 24.1 | 0.00 | 1.04 | 0.00 | 56 | 1005.8 |
| 20260510140527 | 21 | 159 | 9.7 | 25.7 | 0.00 | 1.09 | 0.00 | 57 | 1006.0 |
| 20260510135524 | 20 | 103 | 8.0 | 27.4 | 0.00 | 1.09 | 0.00 | 60 | 1006.1 |
| 20260510134522 | 21 | 112 | 9.7 | 20.9 | 0.00 | 1.09 | 0.00 | 60 | 1006.2 |
| 20260510133519 | 20 | 154 | 11.3 | 24.1 | 0.00 | 1.09 | 0.00 | 61 | 1006.3 |
| 20260510132516 | 21 | 87 | 8.0 | 17.7 | 0.00 | 1.09 | 0.00 | 59 | 1006.4 |
| 20260510131614 | 21 | 133 | 9.7 | 20.9 | 0.00 | 1.09 | 0.00 | 58 | 1006.5 |
| 20260510130611 | 20 | 170 | 11.3 | 20.9 | 0.00 | 1.09 | 0.00 | 60 | 1006.6 |
| 20260510125609 | 20 | 91 | 6.4 | 17.7 | 0.00 | 1.09 | 0.00 | 63 | 1006.7 |
| 20260510124606 | 20 | 122 | 8.0 | 17.7 | 0.00 | 1.09 | 0.00 | 62 | 1006.7 |
| 20260510123604 | 20 | 82 | 11.3 | 20.9 | 0.00 | 1.09 | 0.00 | 62 | 1006.8 |
| 20260510122601 | 20 | 121 | 12.9 | 33.8 | 0.00 | 1.09 | 0.00 | 67 | 1007.0 |
| 20260510121558 | 20 | 116 | 8.0 | 17.7 | 0.00 | 1.09 | 0.00 | 66 | 1007.2 |
| 20260510120556 | 20 | 130 | 8.0 | 22.5 | 0.00 | 1.09 | 0.00 | 63 | 1007.2 |
| 20260510115553 | 20 | 92 | 8.0 | 17.7 | 0.00 | 1.09 | 0.00 | 62 | 1007.1 |
| 20260510114551 | 20 | 105 | 9.7 | 24.1 | 0.00 | 1.09 | 0.00 | 63 | 1007.3 |
| 20260510113548 | 20 | 98 | 12.9 | 25.7 | 0.00 | 1.09 | 0.00 | 65 | 1007.5 |
| 20260510112545 | 20 | 124 | 11.3 | 24.1 | 0.00 | 1.09 | 0.00 | 66 | 1007.5 |
| 20260510111543 | 20 | 111 | 4.8 | 12.9 | 0.00 | 1.09 | 0.00 | 65 | 1007.4 |
| 20260510110540 | 20 | 126 | 11.3 | 22.5 | 0.00 | 1.09 | 0.00 | 67 | 1007.6 |
| 20260510105537 | 20 | 151 | 8.0 | 17.7 | 0.00 | 1.09 | 0.00 | 68 | 1007.6 |
| 20260510104535 | 19 | 156 | 11.3 | 20.9 | 0.00 | 1.09 | 0.00 | 70 | 1007.7 |
| 20260510103532 | 19 | 154 | 8.0 | 17.7 | 0.00 | 1.09 | 0.00 | 71 | 1007.8 |
| 20260510102529 | 18 | 221 | 3.2 | 12.9 | 0.00 | 1.09 | 0.00 | 75 | 1007.8 |
| 20260510101527 | 18 | 192 | 6.4 | 14.5 | 0.00 | 1.09 | 0.00 | 72 | 1007.9 |
| 20260510100524 | 18 | 164 | 6.4 | 17.7 | 0.00 | 1.09 | 0.00 | 74 | 1008.0 |
| 20260510095522 | 18 | 139 | 4.8 | 17.7 | 0.00 | 1.09 | 0.00 | 74 | 1008.0 |
| 20260510094519 | 17 | 130 | 8.0 | 17.7 | 0.00 | 1.09 | 0.00 | 75 | 1008.1 |
| 20260510093517 | 17 | 132 | 9.7 | 22.5 | 0.00 | 1.09 | 0.00 | 76 | 1008.0 |
| 20260510092614 | 17 | 135 | 8.0 | 12.9 | 0.00 | 1.09 | 0.00 | 77 | 1008.1 |
| 20260510091612 | 17 | 133 | 9.7 | 14.5 | 0.00 | 1.09 | 0.00 | 78 | 1008.2 |
| 20260510090609 | 16 | 166 | 8.0 | 17.7 | 0.00 | 1.09 | 0.00 | 80 | 1008.0 |
| 20260510085606 | 16 | 161 | 6.4 | 17.7 | 0.00 | 1.09 | 0.00 | 80 | 1008.1 |
| 20260510084604 | 16 | 126 | 8.0 | 20.9 | 0.00 | 1.09 | 0.00 | 82 | 1008.0 |
| 20260510083601 | 16 | 120 | 6.4 | 17.7 | 0.00 | 1.09 | 0.00 | 82 | 1008.1 |
| 20260510082559 | 15 | 128 | 6.4 | 14.5 | 0.00 | 1.09 | 0.00 | 83 | 1008.1 |
| 20260510081556 | 15 | 131 | 8.0 | 14.5 | 0.00 | 1.09 | 0.00 | 83 | 1008.0 |
| 20260510080553 | 15 | 124 | 11.3 | 20.9 | 0.00 | 1.09 | 0.00 | 84 | 1007.8 |
| 20260510075551 | 14 | 123 | 8.0 | 17.7 | 0.00 | 1.09 | 0.00 | 84 | 1007.9 |
| 20260510074548 | 14 | 135 | 9.7 | 17.7 | 0.00 | 1.09 | 0.00 | 84 | 1007.8 |
| 20260510073546 | 14 | 119 | 8.0 | 17.7 | 0.00 | 1.09 | 0.00 | 85 | 1007.8 |
| 20260510072543 | 14 | 172 | 9.7 | 17.7 | 0.00 | 1.09 | 0.00 | 85 | 1007.6 |
| 20260510071540 | 14 | 154 | 4.8 | 11.3 | 0.00 | 1.09 | 0.00 | 86 | 1007.6 |
| 20260510070538 | 13 | 137 | 6.4 | 14.5 | 0.00 | 1.09 | 0.00 | 85 | 1007.4 |
| 20260510065535 | 13 | 177 | 6.4 | 11.3 | 0.00 | 1.09 | 0.00 | 86 | 1007.4 |
| 20260510064533 | 13 | 144 | 3.2 | 6.4 | 0.00 | 1.09 | 0.00 | 89 | 1007.5 |
| 20260510063530 | 13 | 101 | 1.6 | 6.4 | 0.00 | 1.09 | 0.00 | 90 | 1007.5 |
| 20260510062527 | 13 | 101 | 1.6 | 3.2 | 0.00 | 1.09 | 0.00 | 91 | 1007.4 |
| 20260510061525 | 12 | 0.0 | 3.2 | 0.00 | 1.09 | 0.00 | 92 | 1007.4 | |
| 20260510060522 | 12 | 229 | 1.6 | 3.2 | 0.00 | 1.09 | 0.00 | 94 | 1007.3 |
| 20260510055520 | 11 | 218 | 0.0 | 3.2 | 0.00 | 1.09 | 0.00 | 95 | 1007.3 |
| 20260510054517 | 11 | 158 | 0.0 | 3.2 | 0.00 | 1.09 | 0.00 | 95 | 1007.4 |
| 20260510053615 | 11 | 0.0 | 3.2 | 0.00 | 1.09 | 0.00 | 95 | 1007.4 | |
| 20260510052612 | 11 | 152 | 0.0 | 3.2 | 0.00 | 1.09 | 0.00 | 95 | 1007.3 |
| 20260510050607 | 11 | 163 | 1.6 | 6.4 | 0.00 | 1.09 | 0.00 | 95 | 1007.1 |
| 20260510045604 | 10 | 215 | 1.6 | 3.2 | 0.00 | 1.09 | 0.00 | 95 | 1007.1 |
| 20260510044602 | 10 | 227 | 3.2 | 9.7 | 0.00 | 1.09 | 0.00 | 95 | 1007.3 |
| 20260510043559 | 11 | 234 | 1.6 | 3.2 | 0.00 | 1.09 | 0.00 | 95 | 1007.3 |
| 20260510042556 | 11 | 240 | 0.0 | 3.2 | 0.00 | 1.09 | 0.00 | 95 | 1007.4 |
| 20260510041554 | 11 | 229 | 3.2 | 6.4 | 0.00 | 1.09 | 0.00 | 95 | 1007.3 |
| 20260510040551 | 11 | 227 | 1.6 | 6.4 | 0.00 | 1.09 | 0.00 | 96 | 1007.3 |
| 20260510035548 | 11 | 232 | 3.2 | 6.4 | 0.00 | 1.09 | 0.00 | 96 | 1007.4 |
| 20260510034546 | 11 | 226 | 1.6 | 6.4 | 0.00 | 1.09 | 0.00 | 96 | 1007.5 |
| 20260510033543 | 11 | 235 | 1.6 | 3.2 | 0.00 | 1.09 | 0.00 | 96 | 1007.4 |
| 20260510032541 | 11 | 0.0 | 3.2 | 0.00 | 1.09 | 0.00 | 96 | 1007.5 | |
| 20260510031538 | 11 | 0.0 | 0.0 | 0.00 | 1.09 | 0.00 | 95 | 1007.4 | |
| 20260510030536 | 11 | 0.0 | 0.0 | 0.00 | 1.09 | 0.00 | 95 | 1007.5 | |
| 20260510025533 | 11 | 0.0 | 3.2 | 0.00 | 1.09 | 0.00 | 95 | 1007.7 | |
| 20260510024530 | 11 | 276 | 1.6 | 3.2 | 0.00 | 1.09 | 0.00 | 95 | 1007.6 |
| 20260510023528 | 11 | 0.0 | 3.2 | 0.00 | 1.09 | 0.00 | 95 | 1007.9 | |
| 20260510022525 | 11 | 180 | 0.0 | 3.2 | 0.00 | 1.09 | 0.00 | 95 | 1008.0 |
| 20260510021523 | 11 | 189 | 1.6 | 3.2 | 0.00 | 1.09 | 0.00 | 95 | 1007.8 |
| 20260510020520 | 11 | 180 | 1.6 | 6.4 | 0.00 | 1.09 | 0.00 | 94 | 1007.9 |
| 20260510015517 | 11 | 205 | 1.6 | 6.4 | 0.00 | 1.09 | 0.00 | 94 | 1007.7 |
| 20260510014515 | 11 | 194 | 1.6 | 3.2 | 0.00 | 1.09 | 0.00 | 93 | 1007.7 |
| 20260510013612 | 11 | 213 | 1.6 | 3.2 | 0.00 | 1.09 | 0.00 | 93 | 1007.7 |
| 20260510012610 | 11 | 222 | 1.6 | 3.2 | 0.00 | 1.09 | 0.00 | 94 | 1007.6 |
| 20260510011607 | 12 | 251 | 1.6 | 3.2 | 0.00 | 1.09 | 0.00 | 94 | 1007.8 |
| 20260510010604 | 11 | 225 | 0.0 | 3.2 | 0.00 | 1.09 | 0.00 | 95 | 1007.6 |
| 20260510005602 | 11 | 256 | 1.6 | 3.2 | 0.00 | 1.09 | 0.00 | 95 | 1007.9 |
| 20260510004559 | 11 | 270 | 0.0 | 3.2 | 0.00 | 1.09 | 0.00 | 95 | 1007.9 |
| 20260510003557 | 11 | 229 | 1.6 | 3.2 | 0.00 | 1.09 | 0.00 | 95 | 1008.2 |
| 20260510002554 | 11 | 193 | 1.6 | 3.2 | 0.00 | 1.09 | 0.00 | 94 | 1008.1 |
| 20260510001551 | 12 | 203 | 0.0 | 3.2 | 0.00 | 1.09 | 0.00 | 94 | 1008.1 |
| 20260510000549 | 12 | 225 | 3.2 | 6.4 | 0.00 | 1.09 | 0.00 | 95 | 1008.4 |
| 20260509235546 | 12 | 225 | 4.8 | 6.4 | 0.00 | 1.09 | 1.09 | 95 | 1008.9 |
| 20260509234544 | 12 | 203 | 1.6 | 6.4 | 0.00 | 1.09 | 1.09 | 95 | 1008.8 |
| 20260509233541 | 12 | 230 | 3.2 | 6.4 | 0.00 | 1.09 | 1.09 | 95 | 1008.8 |
| 20260509232539 | 12 | 229 | 4.8 | 6.4 | 0.00 | 1.09 | 1.09 | 95 | 1008.8 |
| 20260509231536 | 12 | 206 | 3.2 | 6.4 | 0.00 | 1.09 | 1.09 | 95 | 1008.9 |
| 20260509230533 | 12 | 203 | 3.2 | 6.4 | 0.00 | 1.09 | 1.09 | 96 | 1008.9 |
| 20260509225531 | 12 | 232 | 3.2 | 6.4 | 0.00 | 1.09 | 1.09 | 96 | 1009.0 |
| 20260509224528 | 12 | 237 | 3.2 | 6.4 | 0.00 | 1.09 | 1.09 | 96 | 1009.0 |
| 20260509223525 | 12 | 170 | 3.2 | 6.4 | 0.00 | 1.09 | 1.09 | 96 | 1009.0 |
| 20260509222523 | 12 | 226 | 1.6 | 6.4 | 0.00 | 1.09 | 1.09 | 96 | 1008.9 |
| 20260509221520 | 12 | 212 | 3.2 | 6.4 | 0.00 | 1.09 | 1.09 | 96 | 1008.9 |
| 20260509220518 | 12 | 206 | 3.2 | 6.4 | 0.00 | 1.09 | 1.09 | 96 | 1008.9 |
| 20260509215515 | 12 | 195 | 1.6 | 6.4 | 0.00 | 1.09 | 1.09 | 96 | 1008.8 |
| 20260509214612 | 12 | 212 | 0.0 | 6.4 | 0.00 | 1.09 | 1.09 | 96 | 1008.9 |
| 20260509213610 | 12 | 180 | 1.6 | 3.2 | 0.00 | 1.09 | 1.09 | 96 | 1008.8 |
| 20260509212607 | 12 | 232 | 1.6 | 6.4 | 0.00 | 1.09 | 1.09 | 96 | 1008.7 |
| 20260509211605 | 12 | 235 | 3.2 | 6.4 | 0.00 | 1.09 | 1.09 | 97 | 1008.8 |
| 20260509210602 | 12 | 241 | 3.2 | 6.4 | 0.00 | 1.09 | 1.09 | 97 | 1008.7 |
| 20260509205559 | 12 | 223 | 1.6 | 6.4 | 0.00 | 1.09 | 1.09 | 97 | 1008.8 |
| 20260509204557 | 12 | 179 | 1.6 | 3.2 | 0.00 | 1.09 | 1.09 | 97 | 1008.7 |
| 20260509203554 | 12 | 194 | 3.2 | 3.2 | 0.00 | 1.09 | 1.09 | 96 | 1008.5 |
| 20260509202552 | 13 | 116 | 1.6 | 3.2 | 0.00 | 1.09 | 1.09 | 96 | 1008.3 |
| 20260509201549 | 12 | 0.0 | 0.0 | 0.00 | 1.09 | 1.09 | 96 | 1008.1 | |
| 20260509200546 | 13 | 0.0 | 3.2 | 0.00 | 1.09 | 1.09 | 96 | 1008.0 | |
| 20260509195544 | 13 | 113 | 0.0 | 3.2 | 0.00 | 1.09 | 1.09 | 96 | 1007.8 |
| 20260509194541 | 13 | 0.0 | 3.2 | 0.00 | 1.09 | 1.09 | 96 | 1007.7 | |
| 20260509193539 | 13 | 140 | 1.6 | 3.2 | 0.00 | 1.09 | 1.09 | 96 | 1007.6 |
| 20260509192536 | 13 | 136 | 3.2 | 6.4 | 0.00 | 1.09 | 1.09 | 96 | 1007.5 |
| 20260509191533 | 13 | 148 | 3.2 | 6.4 | 0.00 | 1.09 | 1.09 | 96 | 1007.4 |
| 20260509190531 | 13 | 128 | 1.6 | 6.4 | 0.00 | 1.09 | 1.09 | 95 | 1007.0 |
| 20260509185528 | 13 | 102 | 3.2 | 6.4 | 0.00 | 1.09 | 1.09 | 95 | 1006.9 |
| 20260509184526 | 13 | 93 | 1.6 | 3.2 | 0.00 | 1.09 | 1.09 | 94 | 1006.6 |
| 20260509183523 | 13 | 37 | 1.6 | 6.4 | 0.03 | 1.09 | 1.09 | 93 | 1006.5 |
| 20260509182520 | 13 | 130 | 3.2 | 6.4 | 0.03 | 1.09 | 1.09 | 91 | 1006.5 |
| 20260509181518 | 13 | 90 | 0.0 | 3.2 | 0.10 | 1.09 | 1.09 | 89 | 1006.0 |
| 20260509180515 | 13 | 235 | 1.6 | 6.4 | 0.13 | 1.09 | 1.09 | 88 | 1005.8 |
| 20260509175613 | 13 | 235 | 3.2 | 9.7 | 0.15 | 1.09 | 1.09 | 89 | 1005.7 |
| 20260509174610 | 12 | 259 | 4.8 | 14.5 | 0.20 | 1.09 | 1.09 | 93 | 1005.5 |
| 20260509173607 | 12 | 295 | 3.2 | 14.5 | 0.28 | 1.04 | 1.04 | 95 | 1005.6 |
| 20260509172605 | 12 | 270 | 6.4 | 14.5 | 0.43 | 1.04 | 1.04 | 96 | 1005.5 |
| 20260509171602 | 13 | 275 | 6.4 | 17.7 | 0.38 | 0.99 | 0.99 | 96 | 1006.0 |
| 20260509170600 | 13 | 289 | 8.0 | 12.9 | 0.38 | 0.97 | 0.97 | 96 | 1006.3 |
| 20260509165557 | 13 | 297 | 4.8 | 11.3 | 0.38 | 0.94 | 0.94 | 97 | 1006.8 |
| 20260509164554 | 13 | 287 | 3.2 | 6.4 | 0.38 | 0.86 | 0.86 | 96 | 1007.3 |
| 20260509163552 | 13 | 293 | 0.0 | 3.2 | 0.43 | 0.79 | 0.79 | 96 | 1007.7 |
| 20260509162549 | 13 | 158 | 0.0 | 3.2 | 0.33 | 0.64 | 0.64 | 96 | 1008.1 |
| 20260509161547 | 13 | 136 | 1.6 | 3.2 | 0.33 | 0.61 | 0.61 | 96 | 1008.4 |
| 20260509160544 | 13 | 122 | 1.6 | 3.2 | 0.33 | 0.56 | 0.56 | 96 | 1008.5 |
| 20260509155541 | 13 | 123 | 1.6 | 6.4 | 0.33 | 0.53 | 0.53 | 95 | 1008.7 |
| 20260509154539 | 13 | 145 | 4.8 | 11.3 | 0.30 | 0.48 | 0.48 | 94 | 1008.7 |
| 20260509153536 | 13 | 121 | 6.4 | 12.9 | 0.23 | 0.36 | 0.36 | 93 | 1008.7 |
| 20260509152533 | 13 | 113 | 4.8 | 12.9 | 0.23 | 0.30 | 0.30 | 93 | 1008.1 |
| 20260509151531 | 13 | 272 | 1.6 | 6.4 | 0.23 | 0.28 | 0.28 | 93 | 1006.5 |
| 20260509150528 | 13 | 313 | 4.8 | 9.7 | 0.23 | 0.23 | 0.23 | 92 | 1006.0 |